Weather History for Asheville, NC

Change the Weather History Date:

Friday, February 15, 2013

  Actual Average Record
Temperature  
Mean Temperature 42 °F 40 °F  
Max Temperature 58 °F 51 °F 74 °F (1989)
Min Temperature 26 °F 30 °F 5 °F (1943)
Degree Days  
Heating Degree Days 23 25  
Month to date heating degree days 352 389  
Since 1 July heating degree days 2599 2916  
Cooling Degree Days 0 0  
Month to date cooling degree days 0 0  
Year to date cooling degree days 0 0  
Moisture  
Dew Point 29 °F    
Average Humidity 61    
Maximum Humidity 92    
Minimum Humidity 30    
Precipitation  
Precipitation T in 0.14 in 0.90 in (1870)
Month to date precipitation 1.18 2.01  
Year to date precipitation 9.76 5.68  
Snow  
Snow 0.00 in 0.10 in 8.40 in (1958)
Month to date snowfall T 1.3  
Since 1 July snowfall T 6.4  
Snow Depth 0.00 in    
Sea Level Pressure  
Sea Level Pressure 30.03 in    
Wind  
Wind Speed 7 mph (NNW)    
Max Wind Speed 23 mph    
Max Gust Speed 35 mph    
Visibility 10 miles    
Events Rain    
T = Trace of Precipitation, MM = Missing Value Source: NWS Daily Summary

Daily Weather History Graph

Daily Weather History Graph

Search for Another Location

Airport:

Trip Planner

Search our weather history database for the weather conditions in past years. The results will help you decide how hot, cold, wet, or windy it might be!

Date:

Astronomy

Feb. 15, 2013 Rise Set
Actual Time 7:16 AM EST 6:12 PM EST
Civil Twilight 6:50 AM EST 6:38 PM EST
Nautical Twilight 6:20 AM EST 7:08 PM EST
Astronomical Twilight 5:51 AM EST 7:38 PM EST
Moon 10:05 AM EST (2/15) 11:57 PM EST (2/15)
Length of Visible Light 11h 48m
Length of Day
10h 56m
Waxing Crescent, 30% of the Moon is Illuminated
Feb 15
Waxing Crescent
Feb 17
First Quarter
Feb 25
Full
Mar 4
Last Quarter
Mar 11
New

Hourly Weather History & Observations

Time (EST) Temp. Windchill Dew Point Humidity Pressure Visibility Wind Dir Wind Speed Gust Speed Precip Events Conditions
12:54 AM 30.9 °F - 27.0 °F 85% 30.06 in 10.0 mi Calm Calm - N/A   Clear
1:54 AM 30.0 °F - 27.0 °F 88% 30.06 in 10.0 mi Calm Calm - N/A   Clear
2:54 AM 28.9 °F - 26.1 °F 89% 30.04 in 10.0 mi Calm Calm - N/A   Clear
3:54 AM 28.0 °F - 26.1 °F 92% 30.05 in 10.0 mi Calm Calm - N/A   Clear
4:54 AM 28.0 °F - 25.0 °F 88% 30.05 in 10.0 mi Calm Calm - N/A   Clear
5:54 AM 27.0 °F - 25.0 °F 92% 30.06 in 10.0 mi Calm Calm - N/A   Clear
6:54 AM 27.0 °F - 24.1 °F 89% 30.09 in 10.0 mi Calm Calm - N/A   Clear
7:54 AM 27.0 °F - 25.0 °F 92% 30.11 in 10.0 mi Calm Calm - N/A   Clear
8:54 AM 32.0 °F - 30.0 °F 92% 30.11 in 10.0 mi Calm Calm - N/A   Clear
9:54 AM 39.9 °F - 30.9 °F 70% 30.09 in 10.0 mi Calm Calm - N/A   Clear
10:54 AM 46.0 °F 44.8 °F 30.9 °F 56% 30.07 in 10.0 mi Variable 3.5 mph - N/A   Clear
11:54 AM 51.1 °F - 30.0 °F 44% 30.04 in 10.0 mi Variable 3.5 mph - N/A   Clear
12:54 PM 55.0 °F - 27.0 °F 34% 30.01 in 10.0 mi Calm Calm - N/A   Partly Cloudy
1:54 PM 55.9 °F - 24.1 °F 29% 29.96 in 10.0 mi SSW 4.6 mph - N/A   Mostly Cloudy
2:54 PM 55.9 °F - 24.1 °F 29% 29.94 in 10.0 mi West 8.1 mph 18.4 mph N/A   Mostly Cloudy
3:54 PM 55.0 °F - 25.0 °F 31% 29.93 in 10.0 mi West 8.1 mph - N/A   Overcast
4:54 PM 55.9 °F - 26.1 °F 32% 29.94 in 10.0 mi West 8.1 mph - N/A   Overcast
5:54 PM 46.9 °F - 36.0 °F 66% 29.97 in 10.0 mi North 18.4 mph 26.5 mph N/A   Overcast
6:54 PM 43.0 °F 35.7 °F 36.0 °F 76% 30.01 in 10.0 mi North 15.0 mph 23.0 mph N/A   Overcast
7:54 PM 39.9 °F 30.2 °F 34.0 °F 79% 30.03 in 10.0 mi NNW 20.7 mph 27.6 mph N/A   Overcast
8:21 PM 39.2 °F 29.6 °F 33.8 °F 81% 30.01 in 10.0 mi NNW 19.6 mph 27.6 mph N/A   Overcast
8:52 PM 39.2 °F 29.8 °F 32.0 °F 75% 30.01 in 10.0 mi North 18.4 mph 24.2 mph N/A   Mostly Cloudy
8:54 PM 39.0 °F 29.9 °F 32.0 °F 76% 30.04 in 10.0 mi North 17.3 mph 24.2 mph N/A   Mostly Cloudy
9:54 PM 37.0 °F 27.4 °F 32.0 °F 82% 30.03 in 10.0 mi North 17.3 mph 27.6 mph 0.00 in Rain Light Rain
10:04 PM 37.4 °F 27.8 °F 30.2 °F 75% 30.01 in 10.0 mi North 17.3 mph 23.0 mph 0.00 in Rain Light Rain
10:28 PM 35.6 °F 24.5 °F 30.2 °F 81% 30.00 in 10.0 mi NNW 20.7 mph 28.8 mph 0.00 in   Scattered Clouds
10:54 PM 36.0 °F 26.3 °F 30.9 °F 82% 30.01 in 10.0 mi North 16.1 mph 34.5 mph 0.00 in   Clear
11:54 PM 34.0 °F 22.1 °F 27.0 °F 75% 29.99 in 10.0 mi NNW 21.9 mph 27.6 mph N/A   Mostly Cloudy